sat.trackr.live / text

‹ back to catalog

STARLINK-3605

NORAD 51805 · 2022-017AP

PAYLOAD ACTIVE UNKNOWN

§ Identity

Operator
Country
US
Launch date
2022-02-25
Launch site
AFWTR
Launch vehicle
Mass (kg)
RCS (m²)

Purposes: comms

External: N2YO · Heavens-Above · Gunter

§ Orbital elements

Epoch: 2026-05-24T22:24:59.086080Z

Period
95.44 min
Inclination
53.2124°
Eccentricity
0.0001195
Mean motion
15.08844617 rev/d
Perigee alt
538.9 km
Apogee alt
540.6 km
Semi-major
6,917.9 km
B*
-1.3824e-5
RAAN
346.9235°
Arg perigee
92.2506°
Mean anomaly
267.8622°
Rev number
23,575

§ Raw data

STARLINK-36051 51805U 22017AP  26144.93401720 -.00000508  00000+0 -13824-4 0  99902 51805  53.2124 346.9235 0001195  92.2506 267.8622 15.08844617235759

JSON: /api/v1/satellites/51805 · /tle

For live sub-satellite position, see the globe view (requires WebGL).

§ Visibility from observer

Set your observer location to see the next 7 days of passes ≥ 10°. The values pass through the URL so the page stays shareable.

No JS? Fill the form by hand. The geolocation button needs JavaScript.